Indiana, PA

9:24 PM EDT on July 24, 2016 (GMT -0400)
Indiana County-Stewart

Weather History for KIDI - November, 2012

Change the Weather History Date:

Tuesday, November 27, 2012

  Actual Average Record
Temperature  
Mean Temperature 32 °F -  
Max Temperature 35 °F 49 °F 75 °F (1990)
Min Temperature 28 °F 32 °F 6 °F (1950)
Degree Days  
Heating Degree Days 34    
Moisture  
Dew Point 30 °F    
Average Humidity 92    
Maximum Humidity 100    
Minimum Humidity 69    
Precipitation  
Precipitation 0.02 in - - ()
Sea Level Pressure  
Sea Level Pressure 30.23 in    
Wind  
Wind Speed 1 mph (NNW)    
Max Wind Speed 8 mph    
Max Gust Speed -    
Visibility 8 miles    
Events      
Averages and records for this station are not official NWS values.
T = Trace of Precipitation, MM = Missing Value Source: NWS Daily Summary

Daily Weather History Graph

Daily Weather History Graph

Search for Another Location

Airport or City:

Trip Planner

Search our weather history database for the weather conditions in past years. The results will help you decide how hot, cold, wet, or windy it might be!

Date:

Astronomy

Nov. 27, 2012 Rise Set
Actual Time 7:17 AM EST 4:51 PM EST
Civil Twilight 6:47 AM EST 5:21 PM EST
Nautical Twilight 6:13 AM EST 5:54 PM EST
Astronomical Twilight 5:40 AM EST 6:27 PM EST
Moon 4:21 PM EST (11/27) 6:20 AM EST (11/27)
Length of Visible Light 10h 34m
Length of Day
9h 33m
Waxing Gibbous, 99% of the Moon is Illuminated
Nov 27
Waxing Gibbous
Nov 28
Full
Dec 6
Last Quarter
Dec 13
New
Dec 20
First Quarter

Hourly Weather History & Observations

Time (EST) Temp. Windchill Dew Point Humidity Pressure Visibility Wind Dir Wind Speed Gust Speed Precip Events Conditions
12:15 AM 30.2 °F - 28.4 °F 93% 30.19 in 10.0 mi Calm Calm - N/A   Unknown
12:35 AM 32.0 °F - 28.4 °F 87% 30.19 in 10.0 mi Calm Calm - N/A   Unknown
5:15 AM 33.8 °F - 32.0 °F 93% 30.19 in 10.0 mi Calm Calm - N/A   Unknown
5:35 AM 33.8 °F - 32.0 °F 93% 30.19 in 10.0 mi Calm Calm - N/A   Unknown
5:55 AM 32.0 °F - 32.0 °F 100% 30.18 in 7.0 mi Calm Calm - N/A   Unknown
6:15 AM 32.0 °F - 32.0 °F 100% 30.18 in 7.0 mi Calm Calm - N/A   Unknown
6:35 AM 32.0 °F - 32.0 °F 100% 30.19 in 3.0 mi Calm Calm - N/A   Unknown
6:55 AM 32.0 °F - 32.0 °F 100% 30.19 in 2.5 mi Calm Calm - N/A   Unknown
7:15 AM 32.0 °F - 32.0 °F 100% 30.19 in 4.0 mi Calm Calm - N/A   Unknown
7:35 AM 32.0 °F - 32.0 °F 100% 30.19 in 2.0 mi Calm Calm - N/A   Unknown
7:55 AM 32.0 °F - 32.0 °F 100% 30.21 in 1.0 mi Calm Calm - N/A   Unknown
8:15 AM 32.0 °F - 32.0 °F 100% 30.22 in 2.0 mi Calm Calm - 0.01 in   Unknown
8:35 AM 32.0 °F - 32.0 °F 100% 30.22 in 2.0 mi Calm Calm - 0.01 in   Unknown
8:55 AM 32.0 °F - 32.0 °F 100% 30.23 in 1.5 mi Calm Calm - 0.01 in   Unknown
9:15 AM 32.0 °F - 32.0 °F 100% 30.23 in 1.8 mi Calm Calm - N/A   Unknown
9:35 AM 32.0 °F - 32.0 °F 100% 30.24 in 2.0 mi Calm Calm - 0.01 in   Unknown
9:55 AM 33.8 °F - 33.8 °F 100% 30.24 in 2.0 mi Calm Calm - 0.01 in   Unknown
10:35 AM 33.8 °F - 33.8 °F 100% 30.24 in 3.0 mi Calm Calm - N/A   Unknown
10:55 AM 33.8 °F - 33.8 °F 100% 30.24 in 5.0 mi Calm Calm - N/A   Unknown
11:15 AM 35.6 °F - 35.6 °F 100% 30.24 in 7.0 mi Calm Calm - N/A   Unknown
11:35 AM 35.6 °F - 35.6 °F 100% 30.24 in 10.0 mi Calm Calm - N/A   Unknown
11:55 AM 35.6 °F 31.7 °F 35.6 °F 100% 30.24 in 10.0 mi NNW 4.6 mph - N/A   Unknown
12:15 PM 35.6 °F 30.7 °F 35.6 °F 100% 30.23 in 10.0 mi NNW 5.8 mph - N/A   Unknown
12:35 PM 35.6 °F - 33.8 °F 93% 30.23 in 10.0 mi Calm Calm - N/A   Unknown
12:55 PM 35.6 °F 30.7 °F 33.8 °F 93% 30.22 in 10.0 mi NNW 5.8 mph - N/A   Unknown
1:15 PM 33.8 °F 27.0 °F 33.8 °F 100% 30.22 in 10.0 mi North 8.1 mph - N/A   Unknown
1:35 PM 33.8 °F 28.6 °F 33.8 °F 100% 30.23 in 10.0 mi North 5.8 mph - N/A   Unknown
1:55 PM 33.8 °F - 32.0 °F 93% 30.23 in 10.0 mi Calm Calm - N/A   Unknown
2:15 PM 33.8 °F 28.6 °F 32.0 °F 93% 30.22 in 10.0 mi North 5.8 mph - N/A   Unknown
2:35 PM 33.8 °F 28.6 °F 32.0 °F 93% 30.22 in 10.0 mi NNW 5.8 mph - N/A   Unknown
2:55 PM 33.8 °F - 32.0 °F 93% 30.22 in 10.0 mi Calm Calm - N/A   Unknown
3:15 PM 33.8 °F - 32.0 °F 93% 30.22 in 10.0 mi Calm Calm - N/A   Unknown
3:35 PM 33.8 °F - 30.2 °F 87% 30.22 in 10.0 mi Calm Calm - N/A   Unknown
3:55 PM 33.8 °F - 30.2 °F 87% 30.22 in 10.0 mi Calm Calm - N/A   Unknown
4:15 PM 33.8 °F - 30.2 °F 87% 30.22 in 10.0 mi Calm Calm - N/A   Unknown
4:35 PM 33.8 °F - 30.2 °F 87% 30.22 in 10.0 mi Calm Calm - N/A   Unknown
4:55 PM 33.8 °F - 30.2 °F 87% 30.22 in 10.0 mi Calm Calm - N/A   Unknown
5:15 PM 33.8 °F - 28.4 °F 81% 30.22 in 10.0 mi Calm Calm - N/A   Unknown
5:35 PM 33.8 °F - 28.4 °F 81% 30.22 in 10.0 mi Calm Calm - N/A   Unknown
5:55 PM 33.8 °F - 28.4 °F 81% 30.23 in 10.0 mi Calm Calm - N/A   Unknown
6:15 PM 33.8 °F - 26.6 °F 75% 30.24 in 10.0 mi Calm Calm - N/A   Unknown
6:55 PM 32.0 °F - 24.8 °F 75% 30.25 in 10.0 mi Calm Calm - N/A   Unknown
7:35 PM 33.8 °F - 24.8 °F 70% 30.26 in 10.0 mi Calm Calm - N/A   Unknown
7:55 PM 32.0 °F - 24.8 °F 75% 30.26 in 10.0 mi Calm Calm - N/A   Unknown
8:15 PM 32.0 °F - 24.8 °F 75% 30.26 in 10.0 mi Calm Calm - N/A   Unknown
8:35 PM 32.0 °F - 23.0 °F 69% 30.26 in 10.0 mi Calm Calm - N/A   Unknown
8:55 PM 30.2 °F - 23.0 °F 75% 30.26 in 10.0 mi Calm Calm - N/A   Unknown
9:35 PM 28.4 °F - 26.6 °F 93% 30.26 in 10.0 mi Calm Calm - N/A   Unknown
9:55 PM 28.4 °F - 26.6 °F 93% 30.26 in 10.0 mi Calm Calm - N/A   Unknown
10:15 PM 28.4 °F - 26.6 °F 93% 30.26 in 10.0 mi Calm Calm - N/A   Unknown
10:35 PM 28.4 °F - 26.6 °F 93% 30.26 in 10.0 mi Calm Calm - N/A   Unknown
10:55 PM 28.4 °F - 26.6 °F 93% 30.25 in 10.0 mi Calm Calm - N/A   Unknown
11:15 PM 28.4 °F - 26.6 °F 93% 30.25 in 10.0 mi Calm Calm - N/A   Unknown
11:35 PM 28.4 °F - 26.6 °F 93% 30.24 in 10.0 mi Calm Calm - N/A   Unknown
11:55 PM 28.4 °F - 26.6 °F 93% 30.24 in 10.0 mi Calm Calm - N/A   Unknown